Location: Taipo
(41.0000°S, 175.9500°E)
Time: 09:43:02
(UTC+00:00)

BlueWalker 3 - Visible Passes

Search period start: 21 January 2026 00:00
Search period end: 31 January 2026 00:00
Orbit: 451 x 463 km, 53.2° (Epoch: 20 January)

Date Brightness Start Highest point End Pass type
(mag) Time Alt. Az. Time Alt. Az. Time Alt. Az.
24 Jan 4.3 16:22:07 10° NNE 16:24:11 15° NE 16:26:17 10° E visible
25 Jan 4.5 15:47:53 10° NE 15:48:47 11° NE 15:49:43 10° ENE visible
27 Jan 2.3 16:11:53 15° NNW 16:14:39 51° NE 16:18:15 10° ESE visible
28 Jan 2.7 15:37:47 27° N 15:39:06 38° NE 15:42:33 10° ESE visible
29 Jan 3.2 15:03:36 28° NE 15:03:36 28° NE 15:06:44 10° ESE visible
29 Jan 2.8 16:37:29 10° W 16:40:56 38° SSW 16:44:25 10° SE visible
30 Jan 4.1 14:29:20 17° E 14:29:20 17° E 14:30:49 10° ESE visible
30 Jan 2.4 16:03:03 21° W 16:05:13 47° SW 16:08:49 10° SE visible
